Location: Acton
(51.4942°N, 0.2232°W)
Time: 13:29:26
(UTC+00:00)

USA 238 DEB - Pass Details

Date: 18 September 2020
Orbit: 1006 x 1206 km, 63.4° (Epoch: 15 October)

Event Time Altitude Azimuth Distance (km) Brightness Sun altitude
Rises 19:30:15 0° 314° (NW) 3,918 8.0 -13.4°
Reaches altitude 10° 19:32:52 10° 315° (NW) 2,986 7.1 -13.8°
Maximum altitude 19:40:03 85° 44° (NE) 1,163 3.8 -14.8°
Enters shadow 19:45:39 19° 133° (SE) 2,459 5.0 -15.6°
